Time,TemperatureF,DewpointF,PressureIn,WindDirection,WindDirectionDegrees,WindSpeedMPH,WindSpeedGustMPH,Humidity,HourlyPrecipIn,Conditions,Clouds,dailyrainin,SoftwareType,DateUTC
2013-06-02 00:00:00,73.7,72.8,29.99,NW,321,0.0,0.0,97,0.00,CLR,,0.28,WeatherDisplay:10.37,2013-06-02 04:00:00,
2013-06-02 00:01:00,73.7,72.8,29.99,NW,321,0.0,0.0,97,0.00,RA,,0.00,WeatherDisplay:10.37,2013-06-02 04:01:00,
2013-06-02 00:06:00,73.7,72.8,29.99,NW,321,0.0,0.0,97,0.00,RA,,0.00,WeatherDisplay:10.37,2013-06-02 04:06:00,
2013-06-02 00:11:00,73.8,72.9,29.99,NW,321,0.0,0.0,97,0.00,CLR,,0.00,WeatherDisplay:10.37,2013-06-02 04:11:00,
2013-06-02 00:16:00,73.9,73.0,29.99,NW,321,0.0,0.0,97,0.00,CLR,,0.00,WeatherDisplay:10.37,2013-06-02 04:16:00,
2013-06-02 00:21:00,73.8,72.9,29.99,WNW,300,2.4,3.5,97,0.00,CLR,,0.00,WeatherDisplay:10.37,2013-06-02 04:21:00,
2013-06-02 00:26:00,73.7,72.8,29.99,WNW,294,0.8,2.3,97,0.00,CLR,,0.00,WeatherDisplay:10.37,2013-06-02 04:26:00,
2013-06-02 00:31:00,73.7,72.8,29.99,WNW,295,0.7,2.3,97,0.00,CLR,,0.00,WeatherDisplay:10.37,2013-06-02 04:31:00,
2013-06-02 00:36:00,74.1,73.2,29.99,North,10,1.2,2.3,97,0.00,CLR,,0.00,WeatherDisplay:10.37,2013-06-02 04:36:00,
2013-06-02 00:41:00,74.1,73.2,29.99,NNE,13,1.2,2.3,97,0.00,CLR,,0.00,WeatherDisplay:10.37,2013-06-02 04:41:00,
2013-06-02 00:46:00,74.1,73.2,29.99,NNE,13,0.4,2.3,97,0.00,CLR,,0.00,WeatherDisplay:10.37,2013-06-02 04:46:00,
2013-06-02 00:51:00,74.1,73.2,29.99,NNE,13,0.0,1.2,97,0.00,CLR,,0.00,WeatherDisplay:10.37,2013-06-02 04:51:00,
2013-06-02 00:56:00,74.1,73.2,29.99,NNE,23,0.3,1.2,97,0.00,CLR,,0.00,WeatherDisplay:10.37,2013-06-02 04:56:00,
2013-06-02 01:01:00,74.0,73.1,29.99,NNE,23,1.0,2.3,97,0.00,CLR,,0.00,WeatherDisplay:10.37,2013-06-02 05:01:00,
2013-06-02 01:06:00,74.1,73.2,29.99,NNE,23,0.7,1.2,97,0.00,CLR,,0.00,WeatherDisplay:10.37,2013-06-02 05:06:00,
2013-06-02 01:11:00,74.0,73.1,29.98,NNE,23,0.7,2.3,97,0.00,CLR,,0.00,WeatherDisplay:10.37,2013-06-02 05:11:00,
2013-06-02 01:17:00,73.9,73.0,29.98,NNE,23,0.0,0.0,97,0.00,CLR,,0.00,WeatherDisplay:10.37,2013-06-02 05:17:00,
2013-06-02 01:22:00,74.0,73.1,29.98,NNE,23,0.0,0.0,97,0.00,CLR,,0.00,WeatherDisplay:10.37,2013-06-02 05:22:00,
2013-06-02 01:27:00,73.9,73.0,29.98,NNE,23,0.0,0.0,97,0.00,CLR,,0.00,WeatherDisplay:10.37,2013-06-02 05:27:00,
2013-06-02 01:32:00,73.9,73.0,29.97,NNE,23,0.0,0.0,97,0.00,CLR,,0.00,WeatherDisplay:10.37,2013-06-02 05:32:00,
2013-06-02 01:37:00,73.8,72.9,29.97,NNE,23,0.0,0.0,97,0.00,CLR,,0.00,WeatherDisplay:10.37,2013-06-02 05:37:00,
2013-06-02 01:42:00,73.8,72.9,29.96,NNE,23,0.0,0.0,97,0.00,CLR,,0.00,WeatherDisplay:10.37,2013-06-02 05:42:00,
2013-06-02 01:47:00,73.8,72.9,29.96,NNE,23,0.2,0.0,97,0.00,CLR,,0.00,WeatherDisplay:10.37,2013-06-02 05:47:00,
2013-06-02 01:52:00,73.8,72.9,29.96,NNE,23,0.3,1.2,97,0.00,CLR,,0.00,WeatherDisplay:10.37,2013-06-02 05:52:00,
2013-06-02 01:57:00,73.6,72.7,29.96,NNE,23,0.0,0.0,97,0.00,CLR,,0.00,WeatherDisplay:10.37,2013-06-02 05:57:00,
2013-06-02 02:02:00,73.7,72.8,29.95,NNE,23,0.4,1.2,97,0.00,CLR,,0.00,WeatherDisplay:10.37,2013-06-02 06:02:00,
2013-06-02 02:07:00,73.6,72.7,29.95,NNE,23,0.0,0.0,97,0.00,CLR,,0.00,WeatherDisplay:10.37,2013-06-02 06:07:00,
2013-06-02 02:12:00,73.6,72.7,29.95,NNE,23,0.0,0.0,97,0.00,CLR,,0.00,WeatherDisplay:10.37,2013-06-02 06:12:00,
2013-06-02 02:17:00,73.6,72.7,29.96,NW,311,1.6,3.5,97,0.00,CLR,,0.00,WeatherDisplay:10.37,2013-06-02 06:17:00,
2013-06-02 02:22:00,73.5,72.6,29.96,NW,309,0.2,1.2,97,0.00,CLR,,0.00,WeatherDisplay:10.37,2013-06-02 06:22:00,
2013-06-02 02:27:00,73.7,72.8,29.95,NW,309,0.0,0.0,97,0.00,CLR,,0.00,WeatherDisplay:10.37,2013-06-02 06:27:00,
2013-06-02 02:32:00,73.6,72.7,29.95,NW,309,0.0,0.0,97,0.00,CLR,,0.00,WeatherDisplay:10.37,2013-06-02 06:32:00,
2013-06-02 02:37:00,73.5,72.6,29.95,NW,309,0.0,0.0,97,0.00,CLR,,0.00,WeatherDisplay:10.37,2013-06-02 06:37:00,
2013-06-02 02:42:00,73.4,72.5,29.94,NW,309,0.0,0.0,97,0.00,CLR,,0.00,WeatherDisplay:10.37,2013-06-02 06:42:00,
2013-06-02 02:47:00,73.4,72.5,29.95,NW,309,0.0,0.0,97,0.00,CLR,,0.00,WeatherDisplay:10.37,2013-06-02 06:47:00,
2013-06-02 02:52:00,73.8,73.2,29.95,NW,309,0.0,0.0,98,0.00,CLR,,0.00,WeatherDisplay:10.37,2013-06-02 06:52:00,
2013-06-02 02:57:00,73.7,72.8,29.95,NW,309,0.0,0.0,97,0.00,CLR,,0.00,WeatherDisplay:10.37,2013-06-02 06:57:00,
2013-06-02 03:02:00,73.8,73.2,29.95,NW,309,0.9,1.2,98,0.00,CLR,,0.00,WeatherDisplay:10.37,2013-06-02 07:02:00,
2013-06-02 03:07:00,73.8,73.2,29.95,NW,309,0.0,0.0,98,0.00,CLR,,0.00,WeatherDisplay:10.37,2013-06-02 07:07:00,
2013-06-02 03:12:00,73.8,73.2,29.95,NW,309,0.0,0.0,98,0.00,CLR,,0.00,WeatherDisplay:10.37,2013-06-02 07:12:00,
2013-06-02 03:17:00,73.9,73.3,29.95,NW,309,0.0,0.0,98,0.00,CLR,,0.00,WeatherDisplay:10.37,2013-06-02 07:17:00,
2013-06-02 03:22:00,73.9,73.3,29.96,NW,309,0.4,2.3,98,0.00,CLR,,0.00,WeatherDisplay:10.37,2013-06-02 07:22:00,
2013-06-02 03:27:00,73.9,73.3,29.96,NW,309,0.0,0.0,98,0.00,CLR,,0.00,WeatherDisplay:10.37,2013-06-02 07:27:00,
2013-06-02 03:32:00,73.8,73.2,29.96,ENE,77,0.9,2.0,98,0.00,CLR,,0.00,WeatherDisplay:10.37,2013-06-02 07:32:00,
2013-06-02 03:37:00,73.9,73.3,29.95,ENE,77,0.0,0.0,98,0.00,CLR,,0.00,WeatherDisplay:10.37,2013-06-02 07:37:00,
2013-06-02 03:42:00,73.7,73.1,29.95,ENE,77,0.0,0.0,98,0.00,CLR,,0.00,WeatherDisplay:10.37,2013-06-02 07:42:00,
2013-06-02 03:47:00,73.5,72.6,29.95,ENE,77,0.0,0.0,97,0.00,CLR,,0.00,WeatherDisplay:10.37,2013-06-02 07:47:00,
2013-06-02 03:52:00,73.5,72.6,29.95,ENE,77,0.0,0.0,97,0.00,CLR,,0.00,WeatherDisplay:10.37,2013-06-02 07:52:00,
2013-06-02 03:57:00,73.5,72.9,29.95,ENE,77,0.0,0.0,98,0.00,CLR,,0.00,WeatherDisplay:10.37,2013-06-02 07:57:00,
2013-06-02 04:02:00,73.5,72.9,29.95,ENE,77,0.0,0.0,98,0.00,CLR,,0.00,WeatherDisplay:10.37,2013-06-02 08:02:00,
2013-06-02 04:07:00,73.5,72.6,29.95,ENE,77,0.0,0.0,97,0.00,CLR,,0.00,WeatherDisplay:10.37,2013-06-02 08:07:00,
2013-06-02 04:13:00,73.3,72.4,29.95,ENE,77,0.0,0.0,97,0.00,CLR,,0.00,WeatherDisplay:10.37,2013-06-02 08:13:00,
2013-06-02 04:18:00,73.2,72.3,29.95,ENE,77,0.0,0.0,97,0.00,CLR,,0.00,WeatherDisplay:10.37,2013-06-02 08:18:00,
2013-06-02 04:23:00,73.2,72.6,29.95,ENE,76,0.0,0.0,98,0.00,CLR,,0.00,WeatherDisplay:10.37,2013-06-02 08:23:00,
2013-06-02 04:28:00,73.1,72.5,29.95,ENE,76,0.2,1.2,98,0.00,CLR,,0.00,WeatherDisplay:10.37,2013-06-02 08:28:00,
2013-06-02 04:33:00,73.2,72.6,29.95,ENE,76,0.0,0.0,98,0.00,CLR,,0.00,WeatherDisplay:10.37,2013-06-02 08:33:00,
2013-06-02 04:38:00,73.5,72.9,29.95,ENE,76,0.0,0.0,98,0.00,CLR,,0.00,WeatherDisplay:10.37,2013-06-02 08:38:00,
2013-06-02 04:43:00,73.5,72.9,29.95,ENE,76,0.0,0.0,98,0.00,CLR,,0.00,WeatherDisplay:10.37,2013-06-02 08:43:00,
2013-06-02 04:48:00,73.4,72.8,29.95,ENE,76,0.0,0.0,98,0.00,CLR,,0.00,WeatherDisplay:10.37,2013-06-02 08:48:00,
2013-06-02 04:53:00,73.4,72.8,29.95,ENE,76,0.0,0.0,98,0.00,CLR,,0.00,WeatherDisplay:10.37,2013-06-02 08:53:00,
2013-06-02 04:58:00,73.3,72.7,29.94,ENE,76,0.0,0.0,98,0.00,CLR,,0.00,WeatherDisplay:10.37,2013-06-02 08:58:00,
2013-06-02 05:03:00,73.1,72.2,29.95,ENE,76,0.0,0.0,97,0.00,CLR,,0.00,WeatherDisplay:10.37,2013-06-02 09:03:00,
2013-06-02 05:08:00,72.9,72.0,29.94,ENE,76,0.0,0.0,97,0.00,CLR,,0.00,WeatherDisplay:10.37,2013-06-02 09:08:00,
2013-06-02 05:13:00,72.8,71.9,29.94,ENE,76,0.0,0.0,97,0.00,CLR,,0.00,WeatherDisplay:10.37,2013-06-02 09:13:00,
2013-06-02 05:18:00,72.8,71.9,29.94,ENE,76,0.0,0.0,97,0.00,CLR,,0.00,WeatherDisplay:10.37,2013-06-02 09:18:00,
2013-06-02 05:23:00,72.6,71.7,29.94,ENE,76,0.0,0.0,97,0.00,CLR,,0.00,WeatherDisplay:10.37,2013-06-02 09:23:00,
2013-06-02 05:28:00,72.6,72.0,29.95,ENE,76,0.0,0.0,98,0.00,CLR,,0.00,WeatherDisplay:10.37,2013-06-02 09:28:00,
2013-06-02 05:33:00,72.6,72.0,29.95,ENE,76,0.0,0.0,98,0.00,CLR,,0.00,WeatherDisplay:10.37,2013-06-02 09:33:00,
2013-06-02 05:38:00,72.5,71.9,29.95,ENE,76,0.0,0.0,98,0.01,RA,,0.01,WeatherDisplay:10.37,2013-06-02 09:38:00,
2013-06-02 05:43:00,72.7,72.1,29.95,ENE,76,0.0,0.0,98,0.01,RA,,0.01,WeatherDisplay:10.37,2013-06-02 09:43:00,
2013-06-02 05:48:00,72.7,72.1,29.95,ENE,76,0.0,0.0,98,0.01,CLR,,0.01,WeatherDisplay:10.37,2013-06-02 09:48:00,
2013-06-02 05:53:00,72.6,72.0,29.96,ENE,76,0.0,0.0,98,0.01,CLR,,0.01,WeatherDisplay:10.37,2013-06-02 09:53:00,
2013-06-02 05:58:00,72.7,72.1,29.95,ENE,76,0.0,0.0,98,0.01,CLR,,0.01,WeatherDisplay:10.37,2013-06-02 09:58:00,
2013-06-02 06:03:00,72.6,72.0,29.96,ENE,76,0.0,0.0,98,0.01,CLR,,0.01,WeatherDisplay:10.37,2013-06-02 10:03:00,
2013-06-02 06:08:00,72.5,71.9,29.96,ENE,76,0.0,0.0,98,0.01,CLR,,0.01,WeatherDisplay:10.37,2013-06-02 10:08:00,
2013-06-02 06:13:00,72.6,72.0,29.96,ENE,76,0.0,0.0,98,0.01,CLR,,0.01,WeatherDisplay:10.37,2013-06-02 10:13:00,
2013-06-02 06:18:00,72.9,72.3,29.96,ENE,76,0.0,0.0,98,0.01,CLR,,0.01,WeatherDisplay:10.37,2013-06-02 10:18:00,
2013-06-02 06:23:00,73.0,72.4,29.96,ENE,76,0.0,0.0,98,0.01,CLR,,0.01,WeatherDisplay:10.37,2013-06-02 10:23:00,
2013-06-02 06:28:00,72.9,72.3,29.96,ENE,76,0.0,0.0,98,0.01,CLR,,0.01,WeatherDisplay:10.37,2013-06-02 10:28:00,
2013-06-02 06:33:00,72.7,72.1,29.97,ENE,76,0.0,0.0,98,0.01,CLR,,0.01,WeatherDisplay:10.37,2013-06-02 10:33:00,
2013-06-02 06:38:00,72.7,72.1,29.97,ENE,76,0.0,0.0,98,0.00,CLR,,0.01,WeatherDisplay:10.37,2013-06-02 10:38:00,
2013-06-02 06:43:00,72.7,72.1,29.97,ENE,76,0.0,0.0,98,0.00,CLR,,0.01,WeatherDisplay:10.37,2013-06-02 10:43:00,
2013-06-02 06:48:00,73.0,72.4,29.97,ENE,76,0.0,0.0,98,0.00,CLR,,0.01,WeatherDisplay:10.37,2013-06-02 10:48:00,
2013-06-02 06:53:00,73.3,72.7,29.97,ENE,76,0.0,0.0,98,0.00,CLR,,0.01,WeatherDisplay:10.37,2013-06-02 10:53:00,
2013-06-02 06:58:00,73.4,72.8,29.98,ENE,76,0.0,0.0,98,0.00,CLR,,0.01,WeatherDisplay:10.37,2013-06-02 10:58:00,
2013-06-02 07:03:00,73.5,72.9,29.98,ENE,76,0.4,0.0,98,0.00,CLR,,0.01,WeatherDisplay:10.37,2013-06-02 11:03:00,
2013-06-02 07:08:00,73.5,72.9,29.98,ENE,76,0.0,0.0,98,0.00,CLR,,0.01,WeatherDisplay:10.37,2013-06-02 11:08:00,
2013-06-02 07:13:00,73.4,72.8,29.98,ENE,76,0.0,0.0,98,0.00,CLR,,0.01,WeatherDisplay:10.37,2013-06-02 11:13:00,
2013-06-02 07:18:00,73.4,72.8,29.98,ENE,76,0.0,0.0,98,0.00,CLR,,0.01,WeatherDisplay:10.37,2013-06-02 11:18:00,
2013-06-02 07:23:00,73.9,73.3,29.98,ENE,76,0.0,1.2,98,0.00,CLR,,0.01,WeatherDisplay:10.37,2013-06-02 11:23:00,
2013-06-02 07:28:00,74.4,74.1,29.98,ENE,76,0.0,0.0,99,0.00,CLR,,0.01,WeatherDisplay:10.37,2013-06-02 11:28:00,
2013-06-02 07:33:00,75.0,74.4,29.98,ENE,76,0.0,0.0,98,0.00,CLR,,0.01,WeatherDisplay:10.37,2013-06-02 11:33:00,
2013-06-02 07:38:00,75.5,74.9,29.99,ENE,76,0.0,0.0,98,0.00,CLR,,0.01,WeatherDisplay:10.37,2013-06-02 11:38:00,
2013-06-02 07:43:00,76.0,75.4,29.99,ENE,76,0.0,0.0,98,0.00,CLR,,0.01,WeatherDisplay:10.37,2013-06-02 11:43:00,
2013-06-02 07:48:00,76.2,75.6,29.98,ENE,76,0.0,0.0,98,0.00,CLR,,0.01,WeatherDisplay:10.37,2013-06-02 11:48:00,
2013-06-02 07:53:00,76.7,76.1,29.98,ENE,76,0.0,0.0,98,0.00,CLR,,0.01,WeatherDisplay:10.37,2013-06-02 11:53:00,
2013-06-02 07:58:00,77.2,76.3,29.98,ENE,76,0.0,1.2,97,0.00,CLR,,0.01,WeatherDisplay:10.37,2013-06-02 11:58:00,
2013-06-02 08:03:00,77.3,76.1,29.98,ENE,76,0.0,0.0,96,0.00,CLR,,0.01,WeatherDisplay:10.37,2013-06-02 12:03:00,
2013-06-02 08:08:00,77.5,76.3,29.98,ENE,76,0.0,0.0,96,0.00,CLR,,0.01,WeatherDisplay:10.37,2013-06-02 12:08:00,
2013-06-02 08:13:00,77.6,76.4,29.98,ENE,76,0.0,0.0,96,0.00,CLR,,0.01,WeatherDisplay:10.37,2013-06-02 12:13:00,
2013-06-02 08:18:00,77.9,76.4,29.98,ENE,76,0.0,0.0,95,0.00,CLR,,0.01,WeatherDisplay:10.37,2013-06-02 12:18:00,
2013-06-02 08:23:00,78.2,76.3,29.98,ENE,76,0.2,1.2,94,0.00,CLR,,0.01,WeatherDisplay:10.37,2013-06-02 12:23:00,
2013-06-02 08:28:00,78.3,76.1,29.99,ENE,76,0.9,3.5,93,0.00,CLR,,0.01,WeatherDisplay:10.37,2013-06-02 12:28:00,
2013-06-02 08:33:00,78.4,76.2,29.98,ENE,76,0.1,0.0,93,0.00,CLR,,0.01,WeatherDisplay:10.37,2013-06-02 12:33:00,
2013-06-02 08:38:00,78.6,75.8,29.98,ENE,76,0.2,1.0,91,0.00,CLR,,0.01,WeatherDisplay:10.37,2013-06-02 12:38:00,
2013-06-02 08:43:00,78.9,75.7,29.98,ENE,76,0.6,2.3,90,0.00,CLR,,0.01,WeatherDisplay:10.37,2013-06-02 12:43:00,
2013-06-02 08:48:00,79.3,76.4,29.98,ENE,76,1.0,1.2,91,0.00,CLR,,0.01,WeatherDisplay:10.37,2013-06-02 12:48:00,
2013-06-02 08:53:00,79.6,76.4,29.98,ENE,76,1.9,2.3,90,0.00,CLR,,0.01,WeatherDisplay:10.37,2013-06-02 12:53:00,
2013-06-02 08:58:00,79.9,76.0,29.98,ENE,76,0.8,1.2,88,0.00,CLR,,0.01,WeatherDisplay:10.37,2013-06-02 12:58:00,
2013-06-02 09:03:00,80.2,76.3,29.98,ENE,76,1.0,1.2,88,0.00,CLR,,0.01,WeatherDisplay:10.37,2013-06-02 13:03:00,
2013-06-02 09:08:00,80.4,75.8,29.97,ENE,76,2.9,3.5,86,0.00,CLR,,0.01,WeatherDisplay:10.37,2013-06-02 13:08:00,
2013-06-02 09:13:00,80.5,76.3,29.97,ENE,76,0.2,2.3,87,0.00,CLR,,0.01,WeatherDisplay:10.37,2013-06-02 13:13:00,
2013-06-02 09:18:00,80.8,76.6,29.98,ENE,76,1.0,3.5,87,0.00,CLR,,0.01,WeatherDisplay:10.37,2013-06-02 13:18:00,
2013-06-02 09:23:00,81.0,76.4,29.98,East,92,0.2,2.3,86,0.00,CLR,,0.01,WeatherDisplay:10.37,2013-06-02 13:23:00,
2013-06-02 09:28:00,81.3,76.4,29.98,East,88,1.5,3.5,85,0.00,CLR,,0.01,WeatherDisplay:10.37,2013-06-02 13:28:00,
2013-06-02 09:33:00,81.7,76.4,29.98,NE,36,1.1,2.3,84,0.00,CLR,,0.01,WeatherDisplay:10.37,2013-06-02 13:33:00,
2013-06-02 09:38:00,82.3,77.0,29.98,NE,36,0.1,1.2,84,0.00,CLR,,0.01,WeatherDisplay:10.37,2013-06-02 13:38:00,
2013-06-02 09:43:00,82.5,76.4,29.98,ENE,76,0.7,1.2,82,0.00,CLR,,0.01,WeatherDisplay:10.37,2013-06-02 13:43:00,
2013-06-02 09:48:00,82.4,76.0,29.98,SE,140,1.8,3.5,81,0.00,CLR,,0.01,WeatherDisplay:10.37,2013-06-02 13:48:00,
2013-06-02 09:53:00,82.4,76.7,29.98,ESE,113,0.6,1.2,83,0.00,CLR,,0.01,WeatherDisplay:10.37,2013-06-02 13:53:00,
2013-06-02 09:59:00,82.9,76.5,29.98,East,80,2.0,2.3,81,0.00,CLR,,0.01,WeatherDisplay:10.37,2013-06-02 13:59:00,
2013-06-02 10:04:00,83.1,76.7,29.99,East,89,2.5,4.6,81,0.00,CLR,,0.01,WeatherDisplay:10.37,2013-06-02 14:04:00,
2013-06-02 10:09:00,83.2,76.8,29.99,SSE,159,2.6,5.8,81,0.00,CLR,,0.01,WeatherDisplay:10.37,2013-06-02 14:09:00,
2013-06-02 10:14:00,83.0,76.2,29.99,ENE,75,2.7,3.5,80,0.00,CLR,,0.01,WeatherDisplay:10.37,2013-06-02 14:14:00,
2013-06-02 10:19:00,83.3,76.5,29.99,East,88,2.2,3.5,80,0.00,CLR,,0.01,WeatherDisplay:10.37,2013-06-02 14:19:00,
2013-06-02 10:24:00,83.5,76.3,29.99,East,94,2.0,2.3,79,0.00,CLR,,0.01,WeatherDisplay:10.37,2013-06-02 14:24:00,
2013-06-02 10:29:00,83.5,76.3,29.99,NNE,30,3.0,3.5,79,0.00,CLR,,0.01,WeatherDisplay:10.37,2013-06-02 14:29:00,
2013-06-02 10:34:00,83.8,76.6,29.98,ESE,107,2.7,3.5,79,0.00,CLR,,0.01,WeatherDisplay:10.37,2013-06-02 14:34:00,
2013-06-02 10:39:00,83.8,76.2,29.98,SE,143,3.1,4.6,78,0.00,CLR,,0.01,WeatherDisplay:10.37,2013-06-02 14:39:00,
2013-06-02 10:44:00,83.6,76.0,29.98,SE,143,0.5,2.3,78,0.00,CLR,,0.01,WeatherDisplay:10.37,2013-06-02 14:44:00,
2013-06-02 10:49:00,83.4,76.2,29.98,SE,142,0.9,2.3,79,0.00,CLR,,0.01,WeatherDisplay:10.37,2013-06-02 14:49:00,
2013-06-02 10:54:00,83.6,75.2,29.98,ENE,78,0.0,0.0,76,0.00,CLR,,0.01,WeatherDisplay:10.37,2013-06-02 14:54:00,
2013-06-02 10:59:00,84.2,75.8,29.98,ESE,114,1.9,3.5,76,0.00,CLR,,0.01,WeatherDisplay:10.37,2013-06-02 14:59:00,
2013-06-02 11:04:00,84.2,75.4,29.98,ESE,114,1.2,3.5,75,0.00,CLR,,0.01,WeatherDisplay:10.37,2013-06-02 15:04:00,
2013-06-02 11:09:00,84.6,76.6,29.98,ESE,114,1.0,3.5,77,0.00,CLR,,0.01,WeatherDisplay:10.37,2013-06-02 15:09:00,
2013-06-02 11:14:00,85.2,77.2,29.98,ESE,114,0.2,1.2,77,0.00,CLR,,0.01,WeatherDisplay:10.37,2013-06-02 15:14:00,
2013-06-02 11:19:00,85.8,76.5,29.97,South,169,0.4,2.3,74,0.00,CLR,,0.01,WeatherDisplay:10.37,2013-06-02 15:19:00,
2013-06-02 11:24:00,86.4,77.1,29.97,SE,136,1.4,4.6,74,0.00,CLR,,0.01,WeatherDisplay:10.37,2013-06-02 15:24:00,
2013-06-02 11:29:00,85.7,75.2,29.97,SE,143,3.4,6.9,71,0.00,CLR,,0.01,WeatherDisplay:10.37,2013-06-02 15:29:00,
2013-06-02 11:34:00,85.8,75.3,29.97,ESE,107,6.3,9.2,71,0.00,CLR,,0.01,WeatherDisplay:10.37,2013-06-02 15:34:00,
2013-06-02 11:39:00,85.4,75.3,29.97,ESE,107,0.6,2.3,72,0.00,CLR,,0.01,WeatherDisplay:10.37,2013-06-02 15:39:00,
2013-06-02 11:44:00,85.9,76.6,29.97,WSW,251,0.0,1.2,74,0.00,CLR,,0.01,WeatherDisplay:10.37,2013-06-02 15:44:00,
2013-06-02 11:49:00,86.2,76.1,29.97,NE,49,2.8,4.6,72,0.00,CLR,,0.01,WeatherDisplay:10.37,2013-06-02 15:49:00,
2013-06-02 11:54:00,85.9,76.2,29.97,ESE,117,2.2,4.6,73,0.00,CLR,,0.01,WeatherDisplay:10.37,2013-06-02 15:54:00,
2013-06-02 11:59:00,85.6,75.1,29.97,ESE,113,2.8,3.5,71,0.00,CLR,,0.01,WeatherDisplay:10.37,2013-06-02 15:59:00,
2013-06-02 12:04:00,85.5,75.0,29.97,SW,214,1.5,3.5,71,0.00,CLR,,0.01,WeatherDisplay:10.37,2013-06-02 16:04:00,
2013-06-02 12:09:00,85.8,75.7,29.96,SSW,201,1.7,3.5,72,0.00,CLR,,0.01,WeatherDisplay:10.37,2013-06-02 16:09:00,
2013-06-02 12:14:00,86.2,75.3,29.96,SSE,163,2.6,3.5,70,0.00,CLR,,0.01,WeatherDisplay:10.37,2013-06-02 16:14:00,
2013-06-02 12:19:00,86.5,76.0,29.96,SSW,213,4.0,4.0,71,0.00,CLR,,0.01,WeatherDisplay:10.37,2013-06-02 16:19:00,
2013-06-02 12:24:00,86.9,75.5,29.96,East,82,2.4,4.6,69,0.00,CLR,,0.01,WeatherDisplay:10.37,2013-06-02 16:24:00,
2013-06-02 12:29:00,86.6,75.6,29.97,South,170,2.3,3.5,70,0.00,CLR,,0.01,WeatherDisplay:10.37,2013-06-02 16:29:00,
2013-06-02 12:34:00,86.3,75.4,29.97,South,186,2.4,3.5,70,0.00,CLR,,0.01,WeatherDisplay:10.37,2013-06-02 16:34:00,
2013-06-02 12:39:00,86.2,74.0,29.96,SSE,151,2.3,3.5,67,0.00,CLR,,0.01,WeatherDisplay:10.37,2013-06-02 16:39:00,
2013-06-02 12:44:00,86.5,75.5,29.96,SSW,197,0.2,1.2,70,0.00,CLR,,0.01,WeatherDisplay:10.37,2013-06-02 16:44:00,
2013-06-02 12:49:00,86.4,74.6,29.96,SSE,164,1.2,3.5,68,0.00,CLR,,0.01,WeatherDisplay:10.37,2013-06-02 16:49:00,
2013-06-02 12:54:00,86.6,74.8,29.96,SSE,164,0.0,2.3,68,0.00,CLR,,0.01,WeatherDisplay:10.37,2013-06-02 16:54:00,
2013-06-02 12:59:00,87.2,74.9,29.96,South,169,1.2,2.3,67,0.00,CLR,,0.01,WeatherDisplay:10.37,2013-06-02 16:59:00,
2013-06-02 13:04:00,87.5,75.2,29.96,SSW,205,3.8,4.6,67,0.00,CLR,,0.01,WeatherDisplay:10.37,2013-06-02 17:04:00,
2013-06-02 13:09:00,87.5,75.2,29.96,South,180,2.2,4.6,67,0.00,CLR,,0.01,WeatherDisplay:10.37,2013-06-02 17:09:00,
2013-06-02 13:14:00,87.8,75.5,29.95,SSW,210,2.8,5.8,67,0.00,CLR,,0.01,WeatherDisplay:10.37,2013-06-02 17:14:00,
2013-06-02 13:19:00,87.8,75.9,29.95,SE,139,1.9,3.5,68,0.00,CLR,,0.01,WeatherDisplay:10.37,2013-06-02 17:19:00,
2013-06-02 13:24:00,87.7,76.3,29.95,SW,227,1.2,3.5,69,0.00,CLR,,0.01,WeatherDisplay:10.37,2013-06-02 17:24:00,
2013-06-02 13:29:00,88.2,75.4,29.95,South,169,2.1,4.6,66,0.00,CLR,,0.01,WeatherDisplay:10.37,2013-06-02 17:29:00,
2013-06-02 13:34:00,87.6,75.3,29.95,SE,126,1.4,3.5,67,0.00,CLR,,0.01,WeatherDisplay:10.37,2013-06-02 17:34:00,
2013-06-02 13:39:00,87.1,75.7,29.95,South,189,2.8,4.0,69,0.00,CLR,,0.01,WeatherDisplay:10.37,2013-06-02 17:39:00,
2013-06-02 13:44:00,87.5,75.6,29.95,South,186,2.4,2.4,68,0.00,CLR,,0.01,WeatherDisplay:10.37,2013-06-02 17:44:00,
2013-06-02 13:49:00,87.6,75.7,29.95,SW,223,4.7,11.5,68,0.00,CLR,,0.01,WeatherDisplay:10.37,2013-06-02 17:49:00,
2013-06-02 13:54:00,87.6,75.3,29.95,SSW,192,7.4,9.2,67,0.00,CLR,,0.01,WeatherDisplay:10.37,2013-06-02 17:54:00,
2013-06-02 13:59:00,85.8,74.9,29.95,South,169,7.1,7.1,70,0.00,CLR,,0.01,WeatherDisplay:10.37,2013-06-02 17:59:00,
2013-06-02 14:04:00,84.7,74.7,29.95,SW,224,5.7,11.0,72,0.00,CLR,,0.01,WeatherDisplay:10.37,2013-06-02 18:04:00,
2013-06-02 14:09:00,83.6,74.8,29.96,WSW,248,8.3,17.3,75,0.00,CLR,,0.01,WeatherDisplay:10.37,2013-06-02 18:09:00,
2013-06-02 14:14:00,81.8,74.3,29.95,South,172,5.4,11.5,78,0.00,CLR,,0.01,WeatherDisplay:10.37,2013-06-02 18:14:00,
2013-06-02 14:19:00,79.8,73.8,29.95,South,172,5.5,9.2,82,0.00,CLR,,0.02,WeatherDisplay:10.37,2013-06-02 18:19:00,
2013-06-02 14:24:00,78.7,73.5,29.95,SE,144,4.7,9.2,84,0.01,RA,,0.02,WeatherDisplay:10.37,2013-06-02 18:24:00,
2013-06-02 14:29:00,78.2,73.3,29.94,South,178,5.2,9.2,85,0.01,RA,,0.02,WeatherDisplay:10.37,2013-06-02 18:29:00,
2013-06-02 14:34:00,78.2,73.3,29.94,SE,136,3.1,4.6,85,0.01,CLR,,0.02,WeatherDisplay:10.37,2013-06-02 18:34:00,
2013-06-02 14:39:00,78.9,74.0,29.94,ESE,114,7.9,9.2,85,0.01,CLR,,0.02,WeatherDisplay:10.37,2013-06-02 18:39:00,
2013-06-02 14:44:00,79.8,73.8,29.95,SSE,163,5.4,8.1,82,0.01,CLR,,0.02,WeatherDisplay:10.37,2013-06-02 18:44:00,
2013-06-02 14:49:00,80.5,73.4,29.94,SE,136,4.7,6.9,79,0.01,CLR,,0.02,WeatherDisplay:10.37,2013-06-02 18:49:00,
2013-06-02 14:54:00,81.2,74.1,29.95,SE,144,4.3,4.6,79,0.01,CLR,,0.02,WeatherDisplay:10.37,2013-06-02 18:54:00,
2013-06-02 14:59:00,81.3,74.2,29.95,SE,136,3.6,4.6,79,0.01,CLR,,0.02,WeatherDisplay:10.37,2013-06-02 18:59:00,
2013-06-02 15:05:00,81.4,73.9,29.95,SE,138,0.0,1.2,78,0.01,CLR,,0.02,WeatherDisplay:10.37,2013-06-02 19:05:00,
2013-06-02 15:10:00,81.8,73.9,29.95,SE,133,2.2,3.5,77,0.01,CLR,,0.02,WeatherDisplay:10.37,2013-06-02 19:10:00,
2013-06-02 15:15:00,82.0,74.1,29.95,ESE,121,2.8,4.6,77,0.01,CLR,,0.02,WeatherDisplay:10.37,2013-06-02 19:15:00,
2013-06-02 15:20:00,82.4,74.8,29.94,SSE,165,1.9,3.5,78,0.01,CLR,,0.02,WeatherDisplay:10.37,2013-06-02 19:20:00,
2013-06-02 15:25:00,83.0,75.4,29.94,South,177,1.7,4.6,78,0.00,CLR,,0.02,WeatherDisplay:10.37,2013-06-02 19:25:00,
2013-06-02 15:30:00,83.6,75.2,29.94,SE,136,1.7,3.5,76,0.00,CLR,,0.02,WeatherDisplay:10.37,2013-06-02 19:30:00,
2013-06-02 15:35:00,84.0,76.4,29.93,ESE,103,0.9,2.3,78,0.00,CLR,,0.02,WeatherDisplay:10.37,2013-06-02 19:35:00,
2013-06-02 15:40:00,84.3,75.9,29.93,South,187,4.7,6.9,76,0.00,CLR,,0.02,WeatherDisplay:10.37,2013-06-02 19:40:00,
2013-06-02 15:45:00,84.2,75.8,29.93,SSE,166,5.6,9.2,76,0.00,CLR,,0.02,WeatherDisplay:10.37,2013-06-02 19:45:00,
2013-06-02 15:50:00,84.1,76.1,29.93,SSW,204,5.7,10.4,77,0.00,CLR,,0.02,WeatherDisplay:10.37,2013-06-02 19:50:00,
2013-06-02 15:55:00,84.1,76.5,29.93,SSE,157,1.8,3.5,78,0.00,CLR,,0.02,WeatherDisplay:10.37,2013-06-02 19:55:00,
2013-06-02 16:00:00,83.6,74.0,29.93,SSW,198,1.4,2.3,73,0.00,CLR,,0.02,WeatherDisplay:10.37,2013-06-02 20:00:00,
2013-06-02 16:05:00,83.3,73.7,29.93,ESE,103,4.7,6.9,73,0.00,CLR,,0.02,WeatherDisplay:10.37,2013-06-02 20:05:00,
2013-06-02 16:10:00,83.1,73.5,29.92,South,182,3.0,5.8,73,0.00,CLR,,0.02,WeatherDisplay:10.37,2013-06-02 20:10:00,
2013-06-02 16:15:00,83.0,73.0,29.92,SSW,202,1.1,3.5,72,0.00,CLR,,0.02,WeatherDisplay:10.37,2013-06-02 20:15:00,
2013-06-02 16:20:00,82.9,72.9,29.92,ESE,111,2.5,3.5,72,0.00,CLR,,0.02,WeatherDisplay:10.37,2013-06-02 20:20:00,
2013-06-02 16:25:00,82.8,73.7,29.92,SSE,163,3.5,4.6,74,0.00,CLR,,0.02,WeatherDisplay:10.37,2013-06-02 20:25:00,
2013-06-02 16:30:00,83.0,74.3,29.92,SE,129,1.9,3.5,75,0.00,CLR,,0.02,WeatherDisplay:10.37,2013-06-02 20:30:00,
2013-06-02 16:35:00,83.3,74.5,29.92,SE,126,3.8,3.8,75,0.00,CLR,,0.02,WeatherDisplay:10.37,2013-06-02 20:35:00,
2013-06-02 16:40:00,83.7,75.7,29.92,West,262,1.5,2.3,77,0.00,CLR,,0.02,WeatherDisplay:10.37,2013-06-02 20:40:00,
2013-06-02 16:45:00,83.9,75.5,29.92,South,182,4.4,5.8,76,0.00,CLR,,0.02,WeatherDisplay:10.37,2013-06-02 20:45:00,
2013-06-02 16:50:00,84.1,75.7,29.93,SW,229,10.6,18.4,76,0.00,CLR,,0.02,WeatherDisplay:10.37,2013-06-02 20:50:00,
2013-06-02 16:55:00,83.5,73.1,29.93,SSW,196,6.3,11.5,71,0.00,CLR,,0.02,WeatherDisplay:10.37,2013-06-02 20:55:00,
2013-06-02 17:00:00,82.9,72.5,29.92,South,172,5.1,9.0,71,0.00,CLR,,0.02,WeatherDisplay:10.37,2013-06-02 21:00:00,
2013-06-02 17:05:00,82.0,71.7,29.92,SW,219,4.6,8.1,71,0.00,CLR,,0.02,WeatherDisplay:10.37,2013-06-02 21:05:00,
2013-06-02 17:10:00,80.9,73.0,29.92,South,180,6.4,11.5,77,0.01,RA,,0.03,WeatherDisplay:10.37,2013-06-02 21:10:00,
2013-06-02 17:15:00,78.9,72.9,29.92,SE,139,2.4,3.5,82,0.04,RA,,0.06,WeatherDisplay:10.37,2013-06-02 21:15:00,
2013-06-02 17:20:00,77.9,73.0,29.92,South,190,0.1,1.2,85,0.04,RA,,0.06,WeatherDisplay:10.37,2013-06-02 21:20:00,
2013-06-02 17:25:00,77.5,73.0,29.92,South,190,0.5,1.2,86,0.04,,,0.06,WeatherDisplay:10.37,2013-06-02 21:25:00,
2013-06-02 17:30:00,77.3,73.1,29.92,South,190,0.0,0.0,87,0.04,CLR,,0.06,WeatherDisplay:10.37,2013-06-02 21:30:00,
2013-06-02 17:35:00,77.4,73.9,29.92,South,190,0.0,0.0,89,0.04,CLR,,0.06,WeatherDisplay:10.37,2013-06-02 21:35:00,
2013-06-02 17:40:00,77.6,74.4,29.92,South,190,0.3,1.2,90,0.04,CLR,,0.06,WeatherDisplay:10.37,2013-06-02 21:40:00,
2013-06-02 17:45:00,77.6,74.4,29.92,South,191,0.4,2.3,90,0.04,CLR,,0.06,WeatherDisplay:10.37,2013-06-02 21:45:00,
2013-06-02 17:50:00,77.8,74.6,29.92,SW,219,1.6,2.3,90,0.04,CLR,,0.06,WeatherDisplay:10.37,2013-06-02 21:50:00,
2013-06-02 17:55:00,77.8,74.3,29.92,SW,219,0.5,3.5,89,0.04,CLR,,0.06,WeatherDisplay:10.37,2013-06-02 21:55:00,
2013-06-02 18:00:00,78.0,74.8,29.92,SSW,209,0.1,1.2,90,0.04,CLR,,0.06,WeatherDisplay:10.37,2013-06-02 22:00:00,
2013-06-02 18:05:00,78.1,74.9,29.92,SSW,209,0.0,0.0,90,0.04,CLR,,0.06,WeatherDisplay:10.37,2013-06-02 22:05:00,
2013-06-02 18:10:00,78.2,75.4,29.92,SSW,209,0.0,0.0,91,0.03,CLR,,0.06,WeatherDisplay:10.37,2013-06-02 22:10:00,
2013-06-02 18:15:00,78.3,75.5,29.92,SSW,209,0.1,0.0,91,0.00,CLR,,0.06,WeatherDisplay:10.37,2013-06-02 22:15:00,
2013-06-02 18:20:00,78.4,75.6,29.93,SSW,209,0.0,0.0,91,0.00,CLR,,0.06,WeatherDisplay:10.37,2013-06-02 22:20:00,
2013-06-02 18:25:00,78.5,75.7,29.93,WSW,237,1.8,1.8,91,0.00,CLR,,0.06,WeatherDisplay:10.37,2013-06-02 22:25:00,
2013-06-02 18:30:00,78.4,74.5,29.93,SW,227,3.4,5.8,88,0.00,CLR,,0.06,WeatherDisplay:10.37,2013-06-02 22:30:00,
2013-06-02 18:35:00,78.8,74.3,29.93,West,267,2.7,3.5,86,0.00,CLR,,0.06,WeatherDisplay:10.37,2013-06-02 22:35:00,
2013-06-02 18:40:00,79.2,74.3,29.93,WSW,242,7.5,10.4,85,0.00,CLR,,0.06,WeatherDisplay:10.37,2013-06-02 22:40:00,
2013-06-02 18:45:00,79.4,74.1,29.93,SW,227,7.1,8.1,84,0.00,CLR,,0.06,WeatherDisplay:10.37,2013-06-02 22:45:00,
2013-06-02 18:50:00,79.4,73.8,29.92,WSW,238,5.5,11.5,83,0.00,CLR,,0.06,WeatherDisplay:10.37,2013-06-02 22:50:00,
2013-06-02 18:55:00,79.3,73.3,29.92,WSW,258,5.4,5.4,82,0.00,CLR,,0.06,WeatherDisplay:10.37,2013-06-02 22:55:00,
2013-06-02 19:00:00,79.1,73.1,29.92,SW,228,2.7,6.9,82,0.00,CLR,,0.06,WeatherDisplay:10.37,2013-06-02 23:00:00,
2013-06-02 19:05:00,79.0,73.0,29.93,SW,223,5.4,8.1,82,0.00,CLR,,0.06,WeatherDisplay:10.37,2013-06-02 23:05:00,
2013-06-02 19:10:00,78.8,73.2,29.93,SW,226,0.6,3.5,83,0.00,CLR,,0.06,WeatherDisplay:10.37,2013-06-02 23:10:00,
2013-06-02 19:15:00,78.8,73.2,29.93,SW,226,0.0,0.0,83,0.00,CLR,,0.06,WeatherDisplay:10.37,2013-06-02 23:15:00,
2013-06-02 19:20:00,78.7,73.1,29.93,SW,230,0.0,0.0,83,0.00,CLR,,0.06,WeatherDisplay:10.37,2013-06-02 23:20:00,
2013-06-02 19:25:00,78.5,73.6,29.93,SW,230,0.1,1.2,85,0.00,CLR,,0.06,WeatherDisplay:10.37,2013-06-02 23:25:00,
2013-06-02 19:30:00,78.4,73.2,29.93,SW,231,1.5,2.3,84,0.00,CLR,,0.06,WeatherDisplay:10.37,2013-06-02 23:30:00,
2013-06-02 19:35:00,78.3,74.5,29.93,SW,231,0.6,1.2,88,0.00,CLR,,0.06,WeatherDisplay:10.37,2013-06-02 23:35:00,
2013-06-02 19:40:00,78.1,74.3,29.93,SW,231,0.0,0.0,88,0.00,CLR,,0.06,WeatherDisplay:10.37,2013-06-02 23:40:00,
2013-06-02 19:45:00,78.0,74.5,29.93,SW,231,0.0,0.0,89,0.00,CLR,,0.06,WeatherDisplay:10.37,2013-06-02 23:45:00,
2013-06-02 19:50:00,77.6,74.1,29.93,SW,231,0.0,0.0,89,0.00,CLR,,0.06,WeatherDisplay:10.37,2013-06-02 23:50:00,
2013-06-02 19:55:00,77.4,73.9,29.93,SW,231,0.0,0.0,89,0.00,CLR,,0.06,WeatherDisplay:10.37,2013-06-02 23:55:00,
2013-06-02 20:00:00,77.5,74.7,29.93,SW,231,0.0,0.0,91,0.00,CLR,,0.06,WeatherDisplay:10.37,2013-06-03 00:00:00,
2013-06-02 20:05:00,77.4,74.6,29.93,SW,231,0.0,0.0,91,0.00,CLR,,0.06,WeatherDisplay:10.37,2013-06-03 00:05:00,
2013-06-02 20:10:00,77.2,74.4,29.93,SW,231,0.0,0.0,91,0.00,CLR,,0.06,WeatherDisplay:10.37,2013-06-03 00:10:00,
2013-06-02 20:15:00,77.1,74.3,29.93,SW,231,0.0,0.0,91,0.00,CLR,,0.06,WeatherDisplay:10.37,2013-06-03 00:15:00,
2013-06-02 20:21:00,77.0,74.2,29.93,SW,231,0.0,0.0,91,0.00,CLR,,0.06,WeatherDisplay:10.37,2013-06-03 00:21:00,
2013-06-02 20:26:00,76.9,74.4,29.93,SW,231,0.0,0.0,92,0.00,CLR,,0.06,WeatherDisplay:10.37,2013-06-03 00:26:00,
2013-06-02 20:31:00,76.8,74.3,29.93,SW,231,0.0,0.0,92,0.00,CLR,,0.06,WeatherDisplay:10.37,2013-06-03 00:31:00,
2013-06-02 20:36:00,76.5,74.0,29.94,SW,231,0.0,0.0,92,0.00,CLR,,0.06,WeatherDisplay:10.37,2013-06-03 00:36:00,
2013-06-02 20:41:00,76.3,73.8,29.94,SW,231,0.0,0.0,92,0.00,CLR,,0.06,WeatherDisplay:10.37,2013-06-03 00:41:00,
2013-06-02 20:46:00,76.2,73.7,29.94,SW,231,0.0,0.0,92,0.00,CLR,,0.06,WeatherDisplay:10.37,2013-06-03 00:46:00,
2013-06-02 20:51:00,76.2,73.7,29.94,SW,231,0.0,0.0,92,0.00,CLR,,0.06,WeatherDisplay:10.37,2013-06-03 00:51:00,
2013-06-02 20:56:00,76.1,73.9,29.95,SW,231,0.0,0.0,93,0.00,CLR,,0.06,WeatherDisplay:10.37,2013-06-03 00:56:00,
2013-06-02 21:01:00,76.1,73.9,29.95,SW,231,0.0,0.0,93,0.00,CLR,,0.06,WeatherDisplay:10.37,2013-06-03 01:01:00,
2013-06-02 21:06:00,76.4,74.5,29.95,SW,231,0.0,0.0,94,0.00,CLR,,0.06,WeatherDisplay:10.37,2013-06-03 01:06:00,
2013-06-02 21:11:00,76.4,74.5,29.95,SW,231,0.0,0.0,94,0.00,CLR,,0.06,WeatherDisplay:10.37,2013-06-03 01:11:00,
2013-06-02 21:16:00,76.4,74.5,29.95,SW,231,0.0,0.0,94,0.00,CLR,,0.06,WeatherDisplay:10.37,2013-06-03 01:16:00,
2013-06-02 21:21:00,76.4,74.5,29.95,SW,231,0.0,0.0,94,0.00,CLR,,0.06,WeatherDisplay:10.37,2013-06-03 01:21:00,
2013-06-02 21:26:00,76.2,74.3,29.96,SW,231,0.0,0.0,94,0.00,CLR,,0.06,WeatherDisplay:10.37,2013-06-03 01:26:00,
2013-06-02 21:31:00,75.9,74.0,29.96,SW,231,0.0,0.0,94,0.00,CLR,,0.06,WeatherDisplay:10.37,2013-06-03 01:31:00,
2013-06-02 21:36:00,75.7,73.8,29.96,SW,231,0.0,0.0,94,0.00,CLR,,0.06,WeatherDisplay:10.37,2013-06-03 01:36:00,
2013-06-02 21:41:00,75.7,74.2,29.96,SW,231,0.0,0.0,95,0.00,CLR,,0.06,WeatherDisplay:10.37,2013-06-03 01:41:00,
2013-06-02 21:46:00,75.7,74.2,29.96,SW,231,0.0,0.0,95,0.00,CLR,,0.06,WeatherDisplay:10.37,2013-06-03 01:46:00,
2013-06-02 21:51:00,75.6,74.1,29.97,SW,231,0.0,0.0,95,0.00,CLR,,0.06,WeatherDisplay:10.37,2013-06-03 01:51:00,
2013-06-02 21:57:00,75.7,74.2,29.97,SW,231,0.0,0.0,95,0.00,CLR,,0.06,WeatherDisplay:10.37,2013-06-03 01:57:00,
2013-06-02 22:02:00,75.7,74.2,29.97,SW,231,0.0,0.0,95,0.00,CLR,,0.06,WeatherDisplay:10.37,2013-06-03 02:02:00,
2013-06-02 22:07:00,75.8,74.3,29.97,SW,231,0.0,0.0,95,0.00,CLR,,0.06,WeatherDisplay:10.37,2013-06-03 02:07:00,
2013-06-02 22:12:00,75.7,74.2,29.97,SW,231,0.0,0.0,95,0.00,CLR,,0.06,WeatherDisplay:10.37,2013-06-03 02:12:00,
2013-06-02 22:17:00,75.5,74.0,29.97,SW,231,0.0,0.0,95,0.00,CLR,,0.06,WeatherDisplay:10.37,2013-06-03 02:17:00,
2013-06-02 22:22:00,75.4,73.9,29.97,SW,231,0.0,0.0,95,0.00,CLR,,0.06,WeatherDisplay:10.37,2013-06-03 02:22:00,
2013-06-02 22:27:00,75.4,73.9,29.97,SW,231,0.0,0.0,95,0.00,CLR,,0.06,WeatherDisplay:10.37,2013-06-03 02:27:00,
2013-06-02 22:32:00,75.3,73.8,29.97,SW,231,0.0,0.0,95,0.00,CLR,,0.06,WeatherDisplay:10.37,2013-06-03 02:32:00,
2013-06-02 22:37:00,75.4,73.9,29.98,SW,231,0.0,0.0,95,0.00,CLR,,0.06,WeatherDisplay:10.37,2013-06-03 02:37:00,
2013-06-02 22:42:00,75.3,73.8,29.98,SW,231,0.0,0.0,95,0.00,CLR,,0.06,WeatherDisplay:10.37,2013-06-03 02:42:00,
2013-06-02 22:47:00,75.4,73.9,29.98,SW,231,0.0,0.0,95,0.00,CLR,,0.06,WeatherDisplay:10.37,2013-06-03 02:47:00,
2013-06-02 22:52:00,75.3,73.8,29.98,SW,231,0.0,0.0,95,0.00,CLR,,0.06,WeatherDisplay:10.37,2013-06-03 02:52:00,
2013-06-02 22:57:00,75.2,73.7,29.98,SW,231,0.0,0.0,95,0.00,CLR,,0.06,WeatherDisplay:10.37,2013-06-03 02:57:00,
2013-06-02 23:02:00,75.1,73.6,29.98,SW,231,0.0,0.0,95,0.00,CLR,,0.06,WeatherDisplay:10.37,2013-06-03 03:02:00,
2013-06-02 23:07:00,75.1,73.6,29.99,SW,231,0.0,0.0,95,0.00,CLR,,0.06,WeatherDisplay:10.37,2013-06-03 03:07:00,
2013-06-02 23:12:00,75.2,74.0,29.98,SW,231,0.0,0.0,96,0.00,CLR,,0.06,WeatherDisplay:10.37,2013-06-03 03:12:00,
2013-06-02 23:17:00,75.3,74.1,29.98,SW,231,0.0,0.0,96,0.00,CLR,,0.06,WeatherDisplay:10.37,2013-06-03 03:17:00,
2013-06-02 23:22:00,75.2,74.0,29.98,SW,231,0.0,0.0,96,0.00,CLR,,0.06,WeatherDisplay:10.37,2013-06-03 03:22:00,
2013-06-02 23:27:00,75.2,74.0,29.98,SW,231,0.0,0.0,96,0.00,CLR,,0.06,WeatherDisplay:10.37,2013-06-03 03:27:00,
2013-06-02 23:32:00,75.2,74.0,29.98,SW,231,0.0,0.0,96,0.00,CLR,,0.06,WeatherDisplay:10.37,2013-06-03 03:32:00,
2013-06-02 23:37:00,75.1,73.9,29.98,SW,231,0.0,0.0,96,0.00,CLR,,0.06,WeatherDisplay:10.37,2013-06-03 03:37:00,
2013-06-02 23:42:00,75.0,73.8,29.98,SW,231,0.0,0.0,96,0.00,CLR,,0.06,WeatherDisplay:10.37,2013-06-03 03:42:00,
2013-06-02 23:47:00,74.9,73.7,29.98,SW,231,0.0,0.0,96,0.00,CLR,,0.06,WeatherDisplay:10.37,2013-06-03 03:47:00,
2013-06-02 23:52:00,74.8,73.6,29.98,SW,231,0.0,0.0,96,0.00,CLR,,0.06,WeatherDisplay:10.37,2013-06-03 03:52:00,
2013-06-02 23:57:00,74.7,73.5,29.98,SW,231,0.0,0.0,96,0.00,CLR,,0.06,WeatherDisplay:10.37,2013-06-03 03:57:00,